Flag for Taiwan Weather past 2 weeks in Taichung, Taiwan

Now
64 °F

Broken clouds.


Feels Like: 64 °F
Forecast: 66 / 78 °F
Wind: 14 mph from Northeast

Location: Chiang Kai Shek

Current Time: Mar 5, 2015 at 12:40:18 PM

Latest Report: Mar 5, 2015 at 12:00 PM


Visibility: N/A

Pressure: 30.07 "Hg

Humidity: 78%

Dew point: 57 °F

Location of TaichungLocation

Historic Weather in Taichung — Graph

°F

Taichung temperature yesterday

Maximum temperature yesterday: 59 °F (at 9:00 AM)
Minimum temperature yesterday: 57 °F (at 12:00 AM)
Average temperature yesterday: 57 °F

Past Weeks' High & Low Weather Summary

 TemperatureHumidityPressure
High81 °F (Feb 21, 1:00 PM)100% (Feb 23, 7:45 PM)30.24 "Hg (Feb 23, 7:45 PM)
Low54 °F (Mar 1, 4:30 PM)39% (Feb 21, 1:00 PM)29.86 "Hg (Mar 3, 1:30 PM)
Average62 °F83%30.05 "Hg
* Reported Feb 18 11:00 AM — Mar 5 11:30 AM, Taichung, Weather by CustomWeather, © 2015

Note: Actual official high and low records may vary slightly from our data, if they occured in-between our weather recording intervals... More about our weather records

Advertising

Taichung weather history for previous 24 hours

 ConditionsComfort  
Time TempWeatherWind HumidityBarometerVisibility
11:30 AM
Thu, Mar 5
66 °FBroken clouds.13 mph73%30.07 "HgN/A
11:00 AM66 °FPartly sunny.14 mph68%30.09 "HgN/A
10:00 AM64 °FPartly sunny.15 mph73%30.09 "HgN/A
9:30 AM64 °FPartly sunny.12 mph73%30.09 "HgN/A
9:00 AM64 °FPartly sunny.13 mph73%30.09 "HgN/A
8:30 AM63 °FPartly sunny.14 mph73%30.07 "HgN/A
8:00 AM61 °FPartly sunny.13 mph77%30.09 "HgN/A
7:30 AM61 °FBroken clouds.12 mph77%30.09 "HgN/A
7:00 AM59 °FPartly sunny.13 mph82%30.09 "HgN/A
6:30 AM59 °FMostly cloudy.20 mph82%30.09 "HgN/A
5:00 AM57 °FOvercast.26 mph88%30.09 "HgN/A
4:30 AM57 °FOvercast.21 mph88%30.09 "HgN/A
4:00 AM57 °FOvercast.22 mph88%30.09 "HgN/A
3:30 AM57 °FOvercast.23 mph88%30.09 "HgN/A
3:00 AM57 °FOvercast.22 mph88%30.12 "HgN/A
2:30 AM57 °FLight rain. Overcast.26 mph88%30.09 "HgN/A
2:00 AM57 °FLight rain. Overcast.24 mph88%30.12 "HgN/A
1:30 AM57 °FLight rain. Overcast.24 mph88%30.12 "HgN/A
1:00 AM57 °FLight rain. Overcast.23 mph88%30.12 "HgN/A
12:30 AM57 °FLight rain. Overcast.25 mph88%30.12 "HgN/A
12:00 AM57 °FLight rain. Mostly cloudy.26 mph88%30.12 "HgN/A
11:30 PM
Wed, Mar 4
57 °FLight rain. Passing clouds.28 mph88%30.12 "Hg6 mi
11:00 PM57 °FLight rain. Passing clouds.25 mph88%30.12 "Hg6 mi
10:49 PM57 °FLight rain. Mostly cloudy.25 mph88%30.15 "Hg6 mi
10:30 PM57 °FLight rain. Mostly cloudy.26 mph88%30.15 "Hg4 mi
10:00 PM57 °FLight rain. Mostly cloudy.26 mph88%30.12 "Hg3 mi
9:30 PM57 °FLight rain. Mostly cloudy.29 mph88%30.15 "Hg3 mi
9:00 PM57 °FLight rain. Mostly cloudy.25 mph88%30.15 "Hg4 mi
8:50 PM57 °FLight rain. Mostly cloudy.28 mph88%30.15 "Hg4 mi
8:30 PM57 °FLight rain. Mostly cloudy.26 mph88%30.15 "Hg3 mi
8:00 PM57 °FLight rain. Fog.25 mph88%30.12 "Hg3 mi
7:30 PM57 °FLight rain. Fog.30 mph88%30.12 "Hg3 mi
7:00 PM57 °FLight rain. Fog.28 mph88%30.09 "Hg3 mi
6:55 PM57 °FLight rain. Fog.26 mph88%30.09 "Hg3 mi
6:00 PM57 °FLight rain. Overcast.25 mph88%30.09 "Hg4 mi
5:30 PM57 °FLight rain. Cloudy.23 mph88%30.07 "Hg4 mi
5:00 PM57 °FLight rain. Cloudy.25 mph88%30.07 "Hg4 mi
4:57 PM57 °FLight rain. Cloudy.25 mph88%30.07 "Hg4 mi
4:30 PM57 °FCloudy.25 mph88%30.07 "HgN/A
4:00 PM57 °FCloudy.24 mph88%30.07 "HgN/A
3:30 PM57 °FCloudy.25 mph82%30.07 "Hg6 mi
3:00 PM57 °FCloudy.24 mph82%30.07 "Hg6 mi
2:30 PM57 °FCloudy.25 mph82%30.07 "Hg6 mi
2:00 PM57 °FMostly cloudy.24 mph82%30.07 "Hg5 mi
1:30 PM57 °FMostly cloudy.30 mph82%30.09 "Hg5 mi
1:00 PM57 °FBroken clouds.28 mph82%30.09 "Hg5 mi
12:30 PM57 °FBroken clouds.26 mph82%30.09 "Hg5 mi
12:00 PM57 °FBroken clouds.25 mph82%30.12 "Hg4 mi
Weather by CustomWeather, © 2015

See weather overviewHow to use our weather pages